Flag for U.S.A. Weather past 2 weeks in Austin, Texas, U.S.A.

Now
97 °F

Passing clouds.


Feels Like: 101 °F
Forecast: 76 / 98 °F
Wind: 8 mph from Southeast

Location: Camp Mabry / Austin City

Current Time: Aug 20, 2014 at 2:24:56 PM

Latest Report: Aug 20, 2014 at 1:51 PM


Visibility: 10 mi

Pressure: 29.91 "Hg

Humidity: 36%

Dew point: 66 °F

Location of AustinLocation

Historic Weather in Austin — Graph

°F

Austin temperature yesterday

Maximum temperature yesterday: 95 °F (at 5:51 PM)
Minimum temperature yesterday: 77 °F (at 6:51 AM)
Average temperature yesterday: 86 °F

Past Weeks' High & Low Weather Summary

 TemperatureHumidityPressure
High102 °F (Aug 7, 4:51 PM)94% (Aug 12, 1:51 AM)30.06 "Hg (Aug 12, 1:51 AM)
Low69 °F (Aug 13, 6:51 AM)25% (Aug 13, 2:51 PM)29.78 "Hg (Aug 7, 6:51 PM)
Average87 °F57%29.93 "Hg
* Reported Aug 5 12:51 PM — Aug 20 12:51 PM, Austin, Weather by CustomWeather, © 2014

Note: Actual official high and low records may vary slightly from our data, if they occured in-between our weather recording intervals... More about our weather records

Advertising

Austin weather history for previous 24 hours

 ConditionsComfort  
Time TempWeatherWind HumidityBarometerVisibility
12:51 PM
Aug 20
96 °FPassing clouds.8 mph41%29.93 "Hg10 mi
11:51 AM89 °FScattered clouds.9 mph52%29.94 "Hg10 mi
10:51 AM90 °FPartly sunny.6 mph56%29.94 "Hg10 mi
9:51 AM85 °FSunny.12 mph68%29.95 "Hg10 mi
8:51 AM81 °FMostly cloudy.3 mph82%29.94 "Hg9 mi
7:51 AM80 °FMostly cloudy.8 mph85%29.92 "Hg8 mi
6:51 AM79 °FPassing clouds.5 mph84%29.91 "Hg9 mi
5:51 AM79 °FOvercast.6 mph84%29.90 "Hg9 mi
4:51 AM78 °FPassing clouds.6 mph87%29.89 "Hg9 mi
3:51 AM79 °FClear.6 mph82%29.88 "Hg10 mi
2:51 AM79 °FClear.6 mph82%29.88 "Hg10 mi
1:51 AM80 °FPassing clouds.7 mph79%29.89 "Hg10 mi
12:51 AM81 °FPassing clouds.7 mph74%29.90 "Hg10 mi
11:51 PM
Aug 19
84 °FClear.13 mph61%29.88 "Hg10 mi
10:51 PM86 °FClear.10 mph51%29.87 "Hg10 mi
9:51 PM88 °FClear.9 mph50%29.85 "Hg10 mi
8:51 PM91 °FSunny.14 mph39%29.82 "Hg10 mi
7:51 PM93 °FPassing clouds.10 mph38%29.79 "Hg10 mi
6:51 PM94 °FSunny.8 mph36%29.79 "Hg10 mi
5:51 PM95 °FSunny.8 mph35%29.78 "Hg10 mi
4:51 PM94 °FSunny.9 mph35%29.78 "Hg10 mi
3:51 PM94 °FSunny.5 mph41%29.81 "Hg10 mi
2:51 PM93 °FSunny.6 mph42%29.85 "Hg10 mi
Weather by CustomWeather, © 2014

See weather overviewHow to use our weather pages